Location: Petrozavodsk
(61.7857°N, 34.3593°E)
Time: 09:38:25
(UTC+03:00)

Terra - Pass Details

Date: 21 October 2019
Orbit: 701 x 703 km, 98.2° (Epoch: 12 November)

Event Time Altitude Azimuth Distance (km) Brightness Sun altitude
Exits shadow 23:53:34 14° 315° (NW) 1,949 4.6 -38.7°
Drops below altitude 10° 23:54:25 10° 323° (NW) 2,185 4.9 -38.7°
Sets 23:57:12 0° 339° (NNW) 3,108 6.0 -38.7°
